,,PA_Meas_PMT16A,,PR_Meas_QMR101_102,,RH_Meas_QMH101,,SR_Meas_QMS101,,TA_Meas_QMH101,,GenWind,,GenWind,
time,status,PA,status,PR,status,RH,status,SR,status,TA,status,DirAvg,status,SpdAvg,
2014-10-14, 00:00:04,VALID,918.082,VALID,0,VALID,82.4015,VALID,0,VALID,21.829,VALID,98,VALID,0,
2014-10-14, 00:01:04,VALID,918.079,VALID,0,VALID,82.5921,VALID,0,VALID,21.829,VALID,99,VALID,0,
2014-10-14, 00:02:04,VALID,918.078,VALID,0,VALID,82.6455,VALID,0,VALID,21.8095,VALID,101,VALID,0,
2014-10-14, 00:03:04,VALID,918.08,VALID,0,VALID,82.9809,VALID,0,VALID,21.7315,VALID,101,VALID,0,
2014-10-14, 00:04:04,VALID,918.133,VALID,0,VALID,83.1029,VALID,0,VALID,21.5754,VALID,101,VALID,0,
2014-10-14, 00:05:04,VALID,918.091,VALID,0,VALID,84.4903,VALID,0,VALID,21.3998,VALID,101,VALID,0,
2014-10-14, 00:06:04,VALID,918.086,VALID,0,VALID,84.5513,VALID,0,VALID,21.4193,VALID,101,VALID,0,
2014-10-14, 00:07:04,VALID,918.068,VALID,0,VALID,82.8818,VALID,0,VALID,21.5559,VALID,124,VALID,0.717969,
2014-10-14, 00:08:04,VALID,918.017,VALID,0,VALID,82.432,VALID,0,VALID,21.6924,VALID,135,VALID,0,
2014-10-14, 00:09:04,VALID,917.995,VALID,0,VALID,82.4701,VALID,0,VALID,21.7315,VALID,135,VALID,0,
2014-10-14, 00:10:04,VALID,917.964,VALID,0,VALID,82.3634,VALID,0,VALID,21.7705,VALID,135,VALID,0,
2014-10-14, 00:11:04,VALID,917.96,VALID,0,VALID,82.5082,VALID,0,VALID,21.7705,VALID,120,VALID,0,
2014-10-14, 00:12:04,VALID,917.946,VALID,0,VALID,82.4244,VALID,0,VALID,21.6534,VALID,110,VALID,0,
2014-10-14, 00:13:04,VALID,917.9,VALID,0,VALID,82.7827,VALID,0,VALID,21.6128,VALID,111,VALID,0,
2014-10-14, 00:14:04,VALID,917.869,VALID,0,VALID,83.0419,VALID,0,VALID,21.5949,VALID,112,VALID,0,
2014-10-14, 00:15:04,VALID,917.871,VALID,0,VALID,83.1715,VALID,0,VALID,21.5575,VALID,100,VALID,0,
2014-10-14, 00:16:04,VALID,917.841,VALID,0,VALID,83.1181,VALID,0,VALID,21.5185,VALID,99,VALID,0,
2014-10-14, 00:17:04,VALID,917.801,VALID,0,VALID,81.9898,VALID,0,VALID,21.712,VALID,114,VALID,0,
2014-10-14, 00:18:04,VALID,917.769,VALID,0,VALID,81.5705,VALID,0,VALID,21.8485,VALID,114,VALID,0,
2014-10-14, 00:19:04,VALID,917.791,VALID,0,VALID,81.3266,VALID,0,VALID,21.9071,VALID,114,VALID,0,
2014-10-14, 00:20:04,VALID,917.787,VALID,0,VALID,81.2504,VALID,0,VALID,21.9851,VALID,114,VALID,0,
2014-10-14, 00:21:04,VALID,917.769,VALID,0,VALID,80.4804,VALID,0,VALID,22.003,VALID,114,VALID,0,
2014-10-14, 00:22:04,VALID,917.742,VALID,0,VALID,79.4512,VALID,0.107441,VALID,22.1591,VALID,100,VALID,0,
2014-10-14, 00:23:04,VALID,917.739,VALID,0,VALID,79.032,VALID,0,VALID,22.2957,VALID,99,VALID,0,
2014-10-14, 00:24:04,VALID,917.776,VALID,0,VALID,79.0472,VALID,0,VALID,22.2957,VALID,106,VALID,0,
2014-10-14, 00:25:04,VALID,917.753,VALID,0,VALID,79.2759,VALID,0,VALID,22.2762,VALID,100,VALID,0,
2014-10-14, 00:26:04,VALID,917.762,VALID,0,VALID,79.4741,VALID,0,VALID,22.2371,VALID,100,VALID,0,
2014-10-14, 00:27:04,VALID,917.754,VALID,0,VALID,79.2835,VALID,0,VALID,22.1981,VALID,99,VALID,0,
2014-10-14, 00:28:04,VALID,917.74,VALID,0,VALID,79.4741,VALID,0.107441,VALID,22.1786,VALID,96,VALID,0.475781,
2014-10-14, 00:29:04,VALID,917.74,VALID,0,VALID,78.8947,VALID,0,VALID,22.2371,VALID,73,VALID,0.101172,
2014-10-14, 00:30:04,VALID,917.73,VALID,0,VALID,79.3064,VALID,0,VALID,22.2176,VALID,78,VALID,0,
2014-10-14, 00:31:04,VALID,917.718,VALID,0,VALID,79.7867,VALID,0,VALID,22.1201,VALID,84,VALID,0,
2014-10-14, 00:32:04,VALID,917.737,VALID,0,VALID,80.3737,VALID,0,VALID,22.003,VALID,84,VALID,0,
2014-10-14, 00:33:04,VALID,917.729,VALID,0,VALID,80.8921,VALID,0,VALID,21.9249,VALID,94,VALID,0,
2014-10-14, 00:34:04,VALID,917.71,VALID,0,VALID,81.2046,VALID,0,VALID,21.8859,VALID,94,VALID,0,
2014-10-14, 00:35:04,VALID,917.713,VALID,0,VALID,81.5096,VALID,0.107441,VALID,21.8469,VALID,94,VALID,0,
2014-10-14, 00:36:04,VALID,917.722,VALID,0,VALID,81.7688,VALID,0,VALID,21.829,VALID,94,VALID,0,
2014-10-14, 00:37:04,VALID,917.694,VALID,0,VALID,82.0584,VALID,0,VALID,21.7705,VALID,84,VALID,0,
2014-10-14, 00:38:04,VALID,917.697,VALID,0,VALID,82.7141,VALID,0,VALID,21.5949,VALID,84,VALID,0,
2014-10-14, 00:39:04,VALID,917.714,VALID,0,VALID,82.897,VALID,0,VALID,21.5185,VALID,113,VALID,0.259375,
2014-10-14, 00:40:04,VALID,917.701,VALID,0,VALID,83.0038,VALID,0,VALID,21.4778,VALID,103,VALID,0,
2014-10-14, 00:41:04,VALID,917.663,VALID,0,VALID,82.7522,VALID,0,VALID,21.4388,VALID,103,VALID,0,
2014-10-14, 00:42:04,VALID,917.672,VALID,0,VALID,82.2414,VALID,0,VALID,21.4778,VALID,103,VALID,0,
2014-10-14, 00:43:04,VALID,917.666,VALID,0,VALID,82.0584,VALID,0,VALID,21.5559,VALID,103,VALID,0,
2014-10-14, 00:44:04,VALID,917.64,VALID,0,VALID,81.5858,VALID,0,VALID,21.6534,VALID,103,VALID,0,
2014-10-14, 00:45:04,VALID,917.611,VALID,0,VALID,81.3495,VALID,0,VALID,21.7315,VALID,103,VALID,0,
2014-10-14, 00:46:04,VALID,917.577,VALID,0,VALID,81.3952,VALID,0,VALID,21.7315,VALID,50,VALID,0.705078,
2014-10-14, 00:47:04,VALID,917.554,VALID,0,VALID,81.2199,VALID,0,VALID,21.712,VALID,53,VALID,0,
2014-10-14, 00:48:04,VALID,917.556,VALID,0,VALID,81.2885,VALID,0,VALID,21.7526,VALID,53,VALID,0,
2014-10-14, 00:49:04,VALID,917.531,VALID,0,VALID,81.4028,VALID,0,VALID,21.7331,VALID,53,VALID,0,
2014-10-14, 00:50:04,VALID,917.476,VALID,0,VALID,81.5553,VALID,0,VALID,21.6746,VALID,53,VALID,0,
2014-10-14, 00:51:04,VALID,917.499,VALID,0,VALID,81.5782,VALID,0,VALID,21.6924,VALID,51,VALID,0,
2014-10-14, 00:52:04,VALID,917.478,VALID,0,VALID,81.6087,VALID,0,VALID,21.6534,VALID,47,VALID,0,
2014-10-14, 00:53:04,VALID,917.431,VALID,0,VALID,81.9898,VALID,0,VALID,21.577,VALID,45,VALID,0,
2014-10-14, 00:54:04,VALID,917.457,VALID,0,VALID,81.9822,VALID,0,VALID,21.5559,VALID,45,VALID,0,
2014-10-14, 00:55:04,VALID,917.44,VALID,0,VALID,81.8755,VALID,0,VALID,21.577,VALID,45,VALID,0,
2014-10-14, 00:56:04,VALID,917.444,VALID,0,VALID,81.6544,VALID,0,VALID,21.6144,VALID,46,VALID,0,
2014-10-14, 00:57:04,VALID,917.415,VALID,0,VALID,81.5019,VALID,0,VALID,21.6144,VALID,50,VALID,0.00546875,
2014-10-14, 00:58:04,VALID,917.373,VALID,0,VALID,81.3876,VALID,0,VALID,21.6339,VALID,36,VALID,0.140625,
2014-10-14, 00:59:04,VALID,917.382,VALID,0,VALID,81.7078,VALID,0,VALID,21.5754,VALID,42,VALID,0.105469,
2014-10-14, 01:00:04,VALID,917.362,VALID,0,VALID,81.7611,VALID,0,VALID,21.577,VALID,56,VALID,1.05859,
2014-10-14, 01:01:04,VALID,917.312,VALID,0,VALID,81.1131,VALID,0,VALID,21.6551,VALID,64,VALID,2.26133,
2014-10-14, 01:02:04,VALID,917.262,VALID,0,VALID,80.1983,VALID,0,VALID,21.7526,VALID,58,VALID,2.88359,
2014-10-14, 01:03:04,VALID,917.265,VALID,0,VALID,79.8705,VALID,0,VALID,21.9071,VALID,46,VALID,1.53672,
2014-10-14, 01:04:04,VALID,917.248,VALID,0,VALID,79.2759,VALID,0,VALID,21.9656,VALID,63,VALID,1.95195,
2014-10-14, 01:05:04,VALID,917.235,VALID,0,VALID,79.2607,VALID,0,VALID,22.0242,VALID,80,VALID,0.810156,
2014-10-14, 01:06:04,VALID,917.174,VALID,0,VALID,78.9938,VALID,0,VALID,22.0047,VALID,70,VALID,2.54297,
2014-10-14, 01:07:04,VALID,917.166,VALID,0,VALID,79.0701,VALID,0,VALID,22.1022,VALID,45,VALID,2.75664,
2014-10-14, 01:08:04,VALID,917.15,VALID,0,VALID,78.7118,VALID,0,VALID,22.1981,VALID,56,VALID,1.51719,
2014-10-14, 01:09:04,VALID,917.105,VALID,0,VALID,79.5503,VALID,0,VALID,22.1201,VALID,67,VALID,1.3,
2014-10-14, 01:10:04,VALID,917.07,VALID,0,VALID,80.2822,VALID,0,VALID,22.0242,VALID,55,VALID,0.504687,
2014-10-14, 01:11:04,VALID,917.072,VALID,0,VALID,79.9315,VALID,0.107441,VALID,21.9054,VALID,35,VALID,1.19805,
2014-10-14, 01:12:04,VALID,917.074,VALID,0,VALID,79.5656,VALID,0,VALID,21.8859,VALID,63,VALID,0.222266,
2014-10-14, 01:13:04,VALID,917.09,VALID,0,VALID,79.6571,VALID,0.107441,VALID,21.9249,VALID,70,VALID,0,
2014-10-14, 01:14:04,VALID,917.106,VALID,0,VALID,80.0916,VALID,0,VALID,21.9054,VALID,71,VALID,0,
2014-10-14, 01:15:04,VALID,917.142,VALID,0,VALID,80.4575,VALID,0,VALID,21.8469,VALID,72,VALID,0,
2014-10-14, 01:16:04,VALID,917.161,VALID,0,VALID,80.8997,VALID,0.107441,VALID,21.7883,VALID,75,VALID,0,
2014-10-14, 01:17:04,VALID,917.168,VALID,0,VALID,80.6634,VALID,0,VALID,21.7688,VALID,103,VALID,0.0875,
2014-10-14, 01:18:04,VALID,917.143,VALID,0,VALID,80.61,VALID,0.107441,VALID,21.829,VALID,106,VALID,0,
2014-10-14, 01:19:04,VALID,917.173,VALID,0,VALID,80.7853,VALID,0.107441,VALID,21.7883,VALID,113,VALID,0,
2014-10-14, 01:20:04,VALID,917.148,VALID,0,VALID,81.075,VALID,0,VALID,21.7688,VALID,113,VALID,0,
2014-10-14, 01:21:04,VALID,917.146,VALID,0,VALID,81.3876,VALID,0.107441,VALID,21.6908,VALID,113,VALID,0,
2014-10-14, 01:22:04,VALID,917.138,VALID,0,VALID,81.7459,VALID,0.107441,VALID,21.6323,VALID,113,VALID,0,
2014-10-14, 01:23:04,VALID,917.172,VALID,0,VALID,82.2643,VALID,0,VALID,21.5737,VALID,106,VALID,0,
2014-10-14, 01:24:04,VALID,917.162,VALID,0,VALID,82.432,VALID,0.107441,VALID,21.5152,VALID,106,VALID,0,
2014-10-14, 01:25:04,VALID,917.149,VALID,0,VALID,82.4701,VALID,0.107441,VALID,21.4957,VALID,107,VALID,0,
2014-10-14, 01:26:04,VALID,917.198,VALID,0,VALID,82.6455,VALID,0.107441,VALID,21.4762,VALID,107,VALID,0,
2014-10-14, 01:27:04,VALID,917.184,VALID,0,VALID,82.9046,VALID,0,VALID,21.416,VALID,107,VALID,0,
2014-10-14, 01:28:04,VALID,917.172,VALID,0,VALID,83.1486,VALID,0.107441,VALID,21.3981,VALID,107,VALID,0,
2014-10-14, 01:29:04,VALID,917.147,VALID,0,VALID,83.4078,VALID,0,VALID,21.3591,VALID,107,VALID,0,
2014-10-14, 01:30:04,VALID,917.139,VALID,0,VALID,83.5984,VALID,0.107441,VALID,21.3006,VALID,107,VALID,0,
2014-10-14, 01:31:04,VALID,917.142,VALID,0,VALID,83.8423,VALID,0.107441,VALID,21.2616,VALID,107,VALID,0,
2014-10-14, 01:32:04,VALID,917.131,VALID,0,VALID,83.9186,VALID,0,VALID,21.2031,VALID,114,VALID,0,
2014-10-14, 01:33:04,VALID,917.138,VALID,0,VALID,84.315,VALID,0.107441,VALID,21.125,VALID,114,VALID,0,
2014-10-14, 01:34:04,VALID,917.116,VALID,0,VALID,84.6199,VALID,0.107441,VALID,21.1445,VALID,115,VALID,0,
2014-10-14, 01:35:04,VALID,917.1,VALID,0,VALID,84.254,VALID,0.107441,VALID,21.2226,VALID,115,VALID,0,
2014-10-14, 01:36:04,VALID,917.064,VALID,0,VALID,84.1473,VALID,0.107441,VALID,21.2421,VALID,114,VALID,0,
2014-10-14, 01:37:04,VALID,917.072,VALID,0,VALID,84.2387,VALID,0,VALID,21.2226,VALID,115,VALID,0,
2014-10-14, 01:38:04,VALID,917.054,VALID,0,VALID,84.4065,VALID,0.107441,VALID,21.164,VALID,114,VALID,0,
2014-10-14, 01:39:04,VALID,917.048,VALID,0,VALID,84.6885,VALID,0,VALID,21.1055,VALID,115,VALID,0,
2014-10-14, 01:40:04,VALID,917.009,VALID,0,VALID,84.01,VALID,0,VALID,21.2437,VALID,115,VALID,0,
2014-10-14, 01:41:04,VALID,916.98,VALID,0,VALID,83.0724,VALID,0.107441,VALID,21.299,VALID,114,VALID,0,
2014-10-14, 01:42:04,VALID,917.002,VALID,0,VALID,82.7446,VALID,0.107441,VALID,21.4388,VALID,114,VALID,0,
2014-10-14, 01:43:04,VALID,916.997,VALID,0,VALID,82.7598,VALID,0,VALID,21.3786,VALID,114,VALID,0,
2014-10-14, 01:44:04,VALID,916.983,VALID,0,VALID,83.9262,VALID,0,VALID,21.164,VALID,114,VALID,0,
2014-10-14, 01:45:04,VALID,916.945,VALID,0,VALID,84.6123,VALID,0,VALID,21.0275,VALID,105,VALID,0,
2014-10-14, 01:46:04,VALID,916.919,VALID,0,VALID,84.7571,VALID,0.107441,VALID,20.93,VALID,105,VALID,0,
2014-10-14, 01:47:04,VALID,916.896,VALID,0,VALID,84.3074,VALID,0.107441,VALID,20.93,VALID,43,VALID,0.291797,
2014-10-14, 01:48:04,VALID,916.923,VALID,0,VALID,83.0495,VALID,0.107441,VALID,21.125,VALID,37,VALID,0.594531,
2014-10-14, 01:49:04,VALID,916.908,VALID,0,VALID,82.3634,VALID,0,VALID,21.2015,VALID,46,VALID,0.678906,
2014-10-14, 01:50:04,VALID,916.917,VALID,0,VALID,82.2338,VALID,0,VALID,21.2811,VALID,23,VALID,0.292578,
2014-10-14, 01:51:04,VALID,916.924,VALID,0,VALID,82.1652,VALID,0.107441,VALID,21.3006,VALID,23,VALID,0.441016,
2014-10-14, 01:52:04,VALID,916.956,VALID,0,VALID,81.4181,VALID,0,VALID,21.3998,VALID,23,VALID,0,
2014-10-14, 01:53:04,VALID,916.946,VALID,0,VALID,81.3952,VALID,0.107441,VALID,21.4372,VALID,25,VALID,0,
2014-10-14, 01:54:04,VALID,916.98,VALID,0,VALID,81.2351,VALID,0,VALID,21.4957,VALID,38,VALID,1.24336,
2014-10-14, 01:55:04,VALID,916.99,VALID,0,VALID,81.7764,VALID,0,VALID,21.4762,VALID,34,VALID,0.476172,
2014-10-14, 01:56:04,VALID,916.988,VALID,0,VALID,81.9288,VALID,0,VALID,21.4177,VALID,32,VALID,0,
2014-10-14, 01:57:04,VALID,916.986,VALID,0,VALID,81.8755,VALID,0.107441,VALID,21.3591,VALID,46,VALID,0.160938,
2014-10-14, 01:58:04,VALID,916.948,VALID,0,VALID,81.5248,VALID,0.107441,VALID,21.4177,VALID,66,VALID,1.60547,
2014-10-14, 01:59:04,VALID,916.943,VALID,0,VALID,81.4181,VALID,0.107441,VALID,21.4762,VALID,56,VALID,0.385156,
2014-10-14, 02:00:04,VALID,916.908,VALID,0,VALID,81.7535,VALID,0.107441,VALID,21.4177,VALID,67,VALID,0,
2014-10-14, 02:01:04,VALID,916.925,VALID,0,VALID,81.7535,VALID,0.107441,VALID,21.3786,VALID,68,VALID,0,
2014-10-14, 02:02:04,VALID,916.923,VALID,0,VALID,80.9759,VALID,0.107441,VALID,21.4372,VALID,89,VALID,1.71445,
2014-10-14, 02:03:04,VALID,916.909,VALID,0,VALID,81.4181,VALID,0.107441,VALID,21.4957,VALID,91,VALID,0.435156,
2014-10-14, 02:04:04,VALID,916.906,VALID,0,VALID,81.9746,VALID,0,VALID,21.3786,VALID,81,VALID,1.06406,
2014-10-14, 02:05:04,VALID,916.866,VALID,0,VALID,82.8665,VALID,0,VALID,21.2616,VALID,70,VALID,0.880859,
2014-10-14, 02:06:04,VALID,916.891,VALID,0,VALID,83.3849,VALID,0,VALID,21.1852,VALID,91,VALID,0.467187,
2014-10-14, 02:07:04,VALID,916.854,VALID,0,VALID,83.6517,VALID,0,VALID,21.1071,VALID,98,VALID,0,
2014-10-14, 02:08:04,VALID,916.842,VALID,0,VALID,83.9033,VALID,0,VALID,21.0681,VALID,99,VALID,0,
2014-10-14, 02:09:04,VALID,916.77,VALID,0,VALID,83.4688,VALID,0,VALID,21.1673,VALID,99,VALID,0,
2014-10-14, 02:10:04,VALID,916.772,VALID,0,VALID,82.9885,VALID,0,VALID,21.2843,VALID,99,VALID,0,
2014-10-14, 02:11:04,VALID,916.733,VALID,0,VALID,82.2109,VALID,0,VALID,21.3608,VALID,99,VALID,0,
2014-10-14, 02:12:04,VALID,916.667,VALID,0,VALID,82.0051,VALID,0,VALID,21.3998,VALID,99,VALID,0,
2014-10-14, 02:13:04,VALID,916.612,VALID,0,VALID,81.5553,VALID,0,VALID,21.3786,VALID,99,VALID,0.00546875,
2014-10-14, 02:14:04,VALID,916.595,VALID,0,VALID,82.0127,VALID,0,VALID,21.4193,VALID,99,VALID,0.379297,
2014-10-14, 02:15:04,VALID,916.544,VALID,0,VALID,82.2414,VALID,0,VALID,21.3803,VALID,129,VALID,0.417188,
2014-10-14, 02:16:04,VALID,916.539,VALID,0,VALID,82.4549,VALID,0,VALID,21.3234,VALID,129,VALID,0,
2014-10-14, 02:17:04,VALID,916.481,VALID,0,VALID,82.8132,VALID,0,VALID,21.2827,VALID,128,VALID,0,
2014-10-14, 02:18:04,VALID,916.451,VALID,0,VALID,82.8132,VALID,0,VALID,21.2632,VALID,128,VALID,0,
2014-10-14, 02:19:04,VALID,916.461,VALID,0,VALID,82.6836,VALID,0,VALID,21.2827,VALID,129,VALID,0,
2014-10-14, 02:20:04,VALID,916.419,VALID,0,VALID,82.7674,VALID,0,VALID,21.3217,VALID,129,VALID,0,
2014-10-14, 02:21:04,VALID,916.403,VALID,0,VALID,83.3468,VALID,0,VALID,21.2226,VALID,133,VALID,0,
2014-10-14, 02:22:04,VALID,916.411,VALID,0,VALID,83.9033,VALID,0,VALID,21.1461,VALID,133,VALID,0,
2014-10-14, 02:23:04,VALID,916.436,VALID,0,VALID,84.0863,VALID,0.107441,VALID,21.047,VALID,133,VALID,0,
2014-10-14, 02:24:04,VALID,916.447,VALID,0,VALID,84.2616,VALID,0,VALID,21.0275,VALID,130,VALID,0,
2014-10-14, 02:25:04,VALID,916.459,VALID,0,VALID,84.9325,VALID,0.107441,VALID,20.93,VALID,130,VALID,0,
2014-10-14, 02:26:04,VALID,916.429,VALID,0,VALID,85.4814,VALID,0.107441,VALID,20.873,VALID,133,VALID,0,
2014-10-14, 02:27:04,VALID,916.491,VALID,0,VALID,85.5805,VALID,0.107441,VALID,20.8145,VALID,132,VALID,0,
2014-10-14, 02:28:04,VALID,916.504,VALID,0,VALID,86.2437,VALID,0,VALID,20.717,VALID,128,VALID,0,
2014-10-14, 02:29:04,VALID,916.461,VALID,0,VALID,86.6096,VALID,0,VALID,20.6374,VALID,128,VALID,0,
2014-10-14, 02:30:04,VALID,916.512,VALID,0,VALID,86.8383,VALID,0,VALID,20.6179,VALID,128,VALID,0,
2014-10-14, 02:31:04,VALID,916.502,VALID,0,VALID,86.8993,VALID,0,VALID,20.639,VALID,129,VALID,0,
2014-10-14, 02:32:04,VALID,916.497,VALID,0,VALID,86.9908,VALID,0,VALID,20.6194,VALID,129,VALID,0,
2014-10-14, 02:33:04,VALID,916.486,VALID,0,VALID,87.0061,VALID,0,VALID,20.5984,VALID,132,VALID,0,
2014-10-14, 02:34:04,VALID,916.49,VALID,0,VALID,86.8841,VALID,0,VALID,20.6194,VALID,133,VALID,0,
2014-10-14, 02:35:04,VALID,916.482,VALID,0,VALID,86.8078,VALID,0,VALID,20.6179,VALID,133,VALID,0,
2014-10-14, 02:36:04,VALID,916.479,VALID,0,VALID,86.6935,VALID,0,VALID,20.678,VALID,133,VALID,0,
2014-10-14, 02:37:04,VALID,916.485,VALID,0,VALID,86.5258,VALID,0,VALID,20.6764,VALID,133,VALID,0,
2014-10-14, 02:38:04,VALID,916.47,VALID,0,VALID,86.0074,VALID,0,VALID,20.795,VALID,159,VALID,0.0289063,
2014-10-14, 02:39:04,VALID,916.412,VALID,0,VALID,85.428,VALID,0,VALID,20.8535,VALID,145,VALID,0.320703,
2014-10-14, 02:40:04,VALID,916.391,VALID,0,VALID,85.1078,VALID,0.107441,VALID,20.9316,VALID,149,VALID,0,
2014-10-14, 02:41:04,VALID,916.352,VALID,0,VALID,84.9858,VALID,0,VALID,20.9316,VALID,146,VALID,0,
2014-10-14, 02:42:04,VALID,916.327,VALID,0,VALID,84.7419,VALID,0.107441,VALID,20.9885,VALID,142,VALID,0,
2014-10-14, 02:43:04,VALID,916.28,VALID,0,VALID,84.3988,VALID,0,VALID,21.047,VALID,137,VALID,0.101563,
2014-10-14, 02:44:04,VALID,916.241,VALID,0,VALID,84.2311,VALID,0,VALID,21.0876,VALID,135,VALID,0.318359,
2014-10-14, 02:45:04,VALID,916.221,VALID,0,VALID,84.132,VALID,0.107441,VALID,21.086,VALID,135,VALID,0.193359,
2014-10-14, 02:46:04,VALID,916.217,VALID,0,VALID,84.1091,VALID,0,VALID,21.086,VALID,135,VALID,0.294531,
2014-10-14, 02:47:04,VALID,916.186,VALID,0,VALID,84.1244,VALID,0,VALID,21.1071,VALID,131,VALID,0,
2014-10-14, 02:48:04,VALID,916.208,VALID,0,VALID,83.9186,VALID,0,VALID,21.1266,VALID,130,VALID,1.65977,
2014-10-14, 02:49:04,VALID,916.186,VALID,0,VALID,83.6136,VALID,0,VALID,21.2047,VALID,116,VALID,0.109375,
2014-10-14, 02:50:04,VALID,916.191,VALID,0,VALID,83.7508,VALID,0,VALID,21.1657,VALID,121,VALID,0.00195313,
2014-10-14, 02:51:04,VALID,916.205,VALID,0,VALID,83.9109,VALID,0,VALID,21.1266,VALID,118,VALID,0.285156,
2014-10-14, 02:52:04,VALID,916.19,VALID,0,VALID,84.1473,VALID,0,VALID,21.0876,VALID,118,VALID,0,
2014-10-14, 02:53:04,VALID,916.164,VALID,0,VALID,84.1701,VALID,0,VALID,21.0876,VALID,144,VALID,0.415625,
2014-10-14, 02:54:04,VALID,916.185,VALID,0,VALID,84.1396,VALID,0,VALID,21.1071,VALID,135,VALID,0.128125,
2014-10-14, 02:55:04,VALID,916.185,VALID,0,VALID,84.1701,VALID,0.107441,VALID,21.0665,VALID,144,VALID,0,
2014-10-14, 02:56:04,VALID,916.227,VALID,0,VALID,84.2692,VALID,0,VALID,21.0876,VALID,143,VALID,0,
2014-10-14, 02:57:04,VALID,916.185,VALID,0,VALID,84.4522,VALID,0,VALID,21.0291,VALID,149,VALID,0,
2014-10-14, 02:58:04,VALID,916.213,VALID,0,VALID,84.5208,VALID,0,VALID,21.0096,VALID,149,VALID,0,
2014-10-14, 02:59:04,VALID,916.197,VALID,0,VALID,84.6275,VALID,0.107441,VALID,20.9885,VALID,151,VALID,0,
2014-10-14, 03:00:04,VALID,916.222,VALID,0,VALID,84.9553,VALID,0.107441,VALID,20.9706,VALID,151,VALID,0,
2014-10-14, 03:01:04,VALID,916.248,VALID,0,VALID,85.4051,VALID,0.107441,VALID,20.8925,VALID,152,VALID,0,
2014-10-14, 03:02:04,VALID,916.304,VALID,0,VALID,85.893,VALID,0,VALID,20.834,VALID,144,VALID,0,
2014-10-14, 03:03:04,VALID,916.286,VALID,0,VALID,86.0912,VALID,0,VALID,20.795,VALID,142,VALID,0,
2014-10-14, 03:04:04,VALID,916.328,VALID,0,VALID,86.1903,VALID,0,VALID,20.7755,VALID,142,VALID,0,
2014-10-14, 03:05:04,VALID,916.328,VALID,0,VALID,86.3199,VALID,0,VALID,20.756,VALID,142,VALID,0,
2014-10-14, 03:06:04,VALID,916.379,VALID,0,VALID,86.4495,VALID,0,VALID,20.7365,VALID,143,VALID,0,
2014-10-14, 03:07:04,VALID,916.359,VALID,0,VALID,86.3962,VALID,0,VALID,20.717,VALID,136,VALID,0.0996094,
2014-10-14, 03:08:04,VALID,916.365,VALID,0,VALID,86.3047,VALID,0.107441,VALID,20.7154,VALID,127,VALID,0,
2014-10-14, 03:09:04,VALID,916.342,VALID,0,VALID,86.0531,VALID,0,VALID,20.7349,VALID,134,VALID,0,
2014-10-14, 03:10:04,VALID,916.316,VALID,0,VALID,85.7558,VALID,0,VALID,20.8145,VALID,140,VALID,0,
2014-10-14, 03:11:04,VALID,916.303,VALID,0,VALID,85.3975,VALID,0,VALID,20.873,VALID,125,VALID,1.18281,
2014-10-14, 03:12:04,VALID,916.287,VALID,0,VALID,84.9401,VALID,0,VALID,20.9511,VALID,144,VALID,0.999219,
2014-10-14, 03:13:04,VALID,916.24,VALID,0,VALID,84.7114,VALID,0,VALID,20.9901,VALID,129,VALID,0.345703,
2014-10-14, 03:14:04,VALID,916.227,VALID,0,VALID,84.3988,VALID,0,VALID,21.0681,VALID,130,VALID,1.26797,
2014-10-14, 03:15:04,VALID,916.245,VALID,0,VALID,84.1396,VALID,0,VALID,21.1071,VALID,137,VALID,0.159766,
2014-10-14, 03:16:04,VALID,916.226,VALID,0,VALID,84.0329,VALID,0,VALID,21.1055,VALID,141,VALID,0.000390625,
2014-10-14, 03:17:04,VALID,916.214,VALID,0,VALID,84.0863,VALID,0,VALID,21.0665,VALID,137,VALID,0,
2014-10-14, 03:18:04,VALID,916.234,VALID,0,VALID,84.0558,VALID,0,VALID,21.1071,VALID,148,VALID,0.0121094,
2014-10-14, 03:19:04,VALID,916.253,VALID,0,VALID,84.1701,VALID,0,VALID,21.0876,VALID,145,VALID,0.00664063,
2014-10-14, 03:20:04,VALID,916.25,VALID,0,VALID,84.2769,VALID,0,VALID,21.0275,VALID,146,VALID,0,
2014-10-14, 03:21:04,VALID,916.238,VALID,0,VALID,84.3302,VALID,0.107441,VALID,21.0291,VALID,135,VALID,0.566797,
2014-10-14, 03:22:04,VALID,916.26,VALID,0,VALID,84.2692,VALID,0,VALID,21.0291,VALID,129,VALID,1.2918,
2014-10-14, 03:23:04,VALID,916.267,VALID,0,VALID,84.1854,VALID,0.107441,VALID,21.0486,VALID,134,VALID,0.678906,
2014-10-14, 03:24:04,VALID,916.251,VALID,0,VALID,84.2921,VALID,0,VALID,21.0486,VALID,140,VALID,0.0578125,
2014-10-14, 03:25:04,VALID,916.289,VALID,0,VALID,84.3226,VALID,0,VALID,21.0096,VALID,131,VALID,0.566016,
2014-10-14, 03:26:04,VALID,916.303,VALID,0,VALID,84.6733,VALID,0,VALID,20.9706,VALID,128,VALID,0,
2014-10-14, 03:27:04,VALID,916.335,VALID,0,VALID,84.9706,VALID,0.107441,VALID,20.912,VALID,117,VALID,0.0125,
2014-10-14, 03:28:04,VALID,916.306,VALID,0,VALID,85.2298,VALID,0,VALID,20.8535,VALID,114,VALID,0,
2014-10-14, 03:29:04,VALID,916.322,VALID,0,VALID,85.306,VALID,0,VALID,20.8324,VALID,123,VALID,0.290234,
2014-10-14, 03:30:04,VALID,916.312,VALID,0,VALID,85.306,VALID,0,VALID,20.8535,VALID,141,VALID,0.0417969,
2014-10-14, 03:31:04,VALID,916.325,VALID,0,VALID,85.2222,VALID,0,VALID,20.8519,VALID,138,VALID,0,
2014-10-14, 03:32:04,VALID,916.289,VALID,0,VALID,85.306,VALID,0,VALID,20.8324,VALID,138,VALID,0,
2014-10-14, 03:33:04,VALID,916.309,VALID,0,VALID,85.0468,VALID,0.107441,VALID,20.8535,VALID,114,VALID,0.0417969,
2014-10-14, 03:34:04,VALID,916.301,VALID,0,VALID,85.2145,VALID,0,VALID,20.8535,VALID,144,VALID,0,
2014-10-14, 03:35:04,VALID,916.284,VALID,0,VALID,85.306,VALID,0,VALID,20.8145,VALID,114,VALID,0,
2014-10-14, 03:36:04,VALID,916.3,VALID,0,VALID,85.6262,VALID,0,VALID,20.7966,VALID,126,VALID,0.0410156,
2014-10-14, 03:37:04,VALID,916.251,VALID,0,VALID,85.5576,VALID,0,VALID,20.7966,VALID,133,VALID,0,
2014-10-14, 03:38:04,VALID,916.276,VALID,0,VALID,85.489,VALID,0,VALID,20.8161,VALID,133,VALID,0,
2014-10-14, 03:39:04,VALID,916.282,VALID,0,VALID,85.3746,VALID,0,VALID,20.8145,VALID,133,VALID,0,
2014-10-14, 03:40:04,VALID,916.26,VALID,0,VALID,84.902,VALID,0,VALID,20.912,VALID,131,VALID,0.449609,
2014-10-14, 03:41:04,VALID,916.261,VALID,0,VALID,84.658,VALID,0,VALID,20.9511,VALID,123,VALID,0,
2014-10-14, 03:42:04,VALID,916.267,VALID,0,VALID,84.5361,VALID,0,VALID,20.9706,VALID,123,VALID,0,
2014-10-14, 03:43:04,VALID,916.239,VALID,0,VALID,84.6809,VALID,0,VALID,20.9527,VALID,123,VALID,0,
2014-10-14, 03:44:04,VALID,916.251,VALID,0,VALID,84.8639,VALID,0,VALID,20.9136,VALID,119,VALID,0,
2014-10-14, 03:45:04,VALID,916.215,VALID,0,VALID,84.9477,VALID,0,VALID,20.8941,VALID,118,VALID,0,
2014-10-14, 03:46:04,VALID,916.195,VALID,0,VALID,85.024,VALID,0,VALID,20.8535,VALID,118,VALID,0,
2014-10-14, 03:47:04,VALID,916.191,VALID,0,VALID,84.9935,VALID,0,VALID,20.8746,VALID,119,VALID,0,
2014-10-14, 03:48:04,VALID,916.17,VALID,0,VALID,85.0011,VALID,0,VALID,20.8535,VALID,121,VALID,0,
2014-10-14, 03:49:04,VALID,916.157,VALID,0,VALID,85.1459,VALID,0,VALID,20.8356,VALID,128,VALID,0,
2014-10-14, 03:50:04,VALID,916.165,VALID,0,VALID,85.2222,VALID,0,VALID,20.8161,VALID,128,VALID,0,
2014-10-14, 03:51:04,VALID,916.186,VALID,0,VALID,85.1383,VALID,0,VALID,20.8535,VALID,145,VALID,0,
2014-10-14, 03:52:04,VALID,916.159,VALID,0,VALID,85.1764,VALID,0,VALID,20.8145,VALID,132,VALID,0,